This is the latest recevied weather packets stored in our database for station/object KN4DS-3. If no packets are shown the sender has not sent any weather packets the latest 10 day(s).
| Time | Temp. | Humidity | Pressure | Rain* | Wind** | Luminosity | Snow |
|---|---|---|---|---|---|---|---|
| 1777392904 | 14.44° C | 93% | 1026.2 hPa | 3.3 mm | - | - | - |
| 1777392604 | 14.44° C | 93% | 1026.3 hPa | 3.3 mm | - | - | - |
| 1777392304 | 14.44° C | 93% | 1026.3 hPa | 3.05 mm | - | - | - |
| 1777392004 | 14.44° C | 93% | 1026.4 hPa | 2.79 mm | - | - | - |
| 1777391704 | 14.44° C | 92% | 1026.4 hPa | 2.54 mm | - | - | - |
| 1777391405 | 14.44° C | 92% | 1026.4 hPa | 2.54 mm | - | - | - |
| 1777391104 | 15° C | 91% | 1026.7 hPa | 2.03 mm | - | - | - |
| 1777390804 | 15° C | 90% | 1026.8 hPa | 1.27 mm | - | - | - |
| 1777390504 | 15° C | 89% | 1026.5 hPa | 0.51 mm | - | - | - |
| 1777390204 | 15.56° C | 87% | 1026.3 hPa | 0.25 mm | - | - | - |
| 1777389904 | 15.56° C | 85% | 1026.3 hPa | 0 mm | - | - | - |
| 1777389604 | 16.11° C | 84% | 1025.9 hPa | 0 mm | - | - | - |
| 1777389304 | 16.11° C | 84% | 1025.5 hPa | 0 mm | - | - | - |
| 1777389004 | 16.11° C | 84% | 1025.5 hPa | 0 mm | - | - | - |
| 1777388704 | 16.11° C | 84% | 1025.9 hPa | 0 mm | - | - | - |
| 1777388404 | 16.11° C | 84% | 1026 hPa | 0 mm | - | - | - |
| 1777388104 | 16.67° C | 84% | 1026 hPa | 0 mm | - | - | - |
| 1777387805 | 16.67° C | 84% | 1025.9 hPa | 0 mm | - | - | - |
| 1777387504 | 16.67° C | 84% | 1025.8 hPa | 0 mm | - | - | - |
| 1777387204 | 16.67° C | 83% | 1025.5 hPa | 0 mm | - | - | - |
| 1777386904 | 16.67° C | 83% | 1025.7 hPa | 0 mm | - | - | - |
| 1777386604 | 16.67° C | 83% | 1025.4 hPa | 0 mm | - | - | - |
| 1777386304 | 16.67° C | 82% | 1025.4 hPa | 0 mm | - | - | - |
| 1777386059 | 17.22° C | 82% | 1025.3 hPa | 0 mm | - | - | - |
| 1777386005 | 17.22° C | 82% | 1025.3 hPa | 0 mm | - | - | - |
* Rain latest hour (hover to see other rain measurements)
** Current wind speed in m/s (hover to see current wind gust speed)